TABLETSAT-AURORA

Last updated on Thu Dec 13 2018 00:09:21 GMT+0000 (Coordinated Universal Time)

1 40017U 14033H 18346.79976076 .00000420 00000-0 45804-4 0 9997 2 40017 97.9686 278.1354 0023124 333.2545 26.7464 14.93221088244092

Satellite not in orbit

TABLETSAT-AURORA